Content
SEND FEEDBACK

Daily
Averages
Monthly
Summary
Finland

MAARIANHAMINA, FINLAND


Home > Europe > Finland
Elevation: 7 feet     Latitude: 60 01N     Longitude: 019 55E

WEATHER
 
SELECT A DAY
Number of Records: 249,782;   Date Range: 3/29/98 - 9/17/14
 
SHARE

PRINT THIS DATA

[ ← Previous Day ]
WEATHER ALMANAC - JANUARY 31, 2013
[ Next Day → ]
[ °C ]   °F
Weather ElementAverageHighLow
Temperature34.8 °F37.4 °F (3:20 am)32 °F (5:50 pm)
Dewpoint32.6 °F35.6 °F (1:50 pm)28.4 °F (8:39 pm)
Humidity91.9 %100 % (1:50 pm)87 % (3:20 am)
Barometer28.93 in29.12 in (11:50 pm)28.88 in (12:50 am)
Wind Speed11.1 mph19.6 mph (1:20 am)
Weather ElementAverage
Visibility5.9 mi
Wind DirectionWSW (253.2 °)

Weather ElementTotal
Precipitation---
Heating Degree Days30.3 (Base 65)
Averaged from 50 records on January 31, 2013
WEATHER CONDITIONS BREAKOUT
WIND DIRECTION BREAKOUT
WEATHER BY HOUR - JANUARY 31, 2013
[ °C ]   °F
Local TimeTemperatureDewpointHumidityBarometerVisibilityWind DirectionWind SpeedGust SpeedPrecipitationEventsConditions
12:50 AM35.6 °F33.8 °F93 %28.88 in6.2 miSSW (210°)17.3 mphOvercast
1:20 AM35.6 °F33.8 °F93 %28.88 in6.2 miSSW (210°)19.6 mphOvercast
1:50 AM35.6 °F33.8 °F93 %28.88 in6.2 miSSW (210°)19.6 mphOvercast
2:20 AM35.6 °F33.8 °F93 %28.88 in6.2 miSSW (200°)18.4 mphOvercast
2:50 AM35.6 °F33.8 °F93 %28.88 in6.2 miSSW (200°)17.3 mphOvercast
3:20 AM37.4 °F33.8 °F87 %28.88 in6.2 miSSW (210°)18.4 mphOvercast
3:50 AM37.4 °F33.8 °F87 %28.88 in6.2 miSSW (210°)18.4 mphOvercast
4:20 AM37.4 °F33.8 °F87 %28.88 in6.2 miSSW (210°)16.1 mphOvercast
4:50 AM35.6 °F33.8 °F93 %28.88 in6.2 miSSW (210°)15.0 mphOvercast
5:20 AM35.6 °F33.8 °F93 %28.88 in6.2 miSSW (210°)16.1 mphOvercast
5:50 AM35.6 °F33.8 °F93 %28.88 in6.2 miSSW (200°)12.7 mphOvercast
6:02 AM35.6 °F32.0 °F87 %28.88 in6.2 miSSW (210°)12.7 mphOvercast
6:03 AM35.6 °F32.0 °F87 %28.88 in6.2 miSSW (210°)12.7 mphOvercast
6:20 AM35.6 °F33.8 °F93 %28.88 in6.2 miSSW (200°)12.7 mphOvercast
6:39 AM35.6 °F33.8 °F93 %28.88 in6.2 miSSW (210°)11.5 mphRainLight Rain
6:50 AM35.6 °F33.8 °F93 %28.88 in6.2 miSSW (210°)11.5 mphRainLight Rain
7:20 AM35.6 °F33.8 °F93 %28.88 in6.2 miSSW (210°)13.8 mphRainLight Rain
7:50 AM35.6 °F33.8 °F93 %28.88 in6.2 miSSW (200°)12.7 mphOvercast
8:20 AM35.6 °F33.8 °F93 %28.88 in6.2 miSSW (210°)13.8 mphOvercast
8:50 AM35.6 °F33.8 °F93 %28.88 in6.2 miSSW (210°)13.8 mphOvercast
9:20 AM35.6 °F33.8 °F93 %28.88 in6.2 miSSW (210°)13.8 mphOvercast
9:50 AM35.6 °F33.8 °F93 %28.88 in6.2 miSSW (210°)12.7 mphOvercast
10:20 AM35.6 °F33.8 °F93 %28.88 in6.2 miSSW (210°)12.7 mphMostly Cloudy
10:50 AM35.6 °F33.8 °F93 %28.88 in6.2 miSSW (210°)9.2 mphMostly Cloudy
11:20 AM35.6 °F33.8 °F93 %28.88 in6.2 miSSW (210°)10.4 mphMostly Cloudy
11:50 AM35.6 °F33.8 °F93 %28.91 in6.2 miSSW (210°)8.1 mphMostly Cloudy
12:20 PM35.6 °F33.8 °F93 %28.91 in6.2 miSSW (210°)4.6 mphMostly Cloudy
12:50 PM35.6 °F33.8 °F93 %28.91 in4.3 miSSW (210°)5.8 mphSnowLight Snow Grains
1:20 PM35.6 °F33.8 °F93 %28.91 in4.3 miSW (220°)5.8 mphRainLight Rain
1:50 PM35.6 °F35.6 °F100 %28.91 inSW (220°)3.5 mphRainLight Rain
2:20 PM35.6 °F35.6 °F100 %28.91 inWSW (250°)4.6 mphRainLight Rain
2:50 PM35.6 °F35.6 °F100 %28.94 in5.6 miWest (270°)5.8 mphRainLight Rain
3:20 PM35.6 °F35.6 °F100 %28.94 in6.2 miWest (270°)4.6 mphRainLight Rain
3:50 PM35.6 °F33.8 °F93 %28.94 in6.2 miNNW (330°)8.1 mphRainLight Rain
4:20 PM33.8 °F33.8 °F100 %28.94 in6.2 miNNW (340°)8.1 mphRainLight Rain
4:50 PM33.8 °F32.0 °F93 %28.97 in2.8 miNNW (330°)6.9 mphRainLight Rain
5:20 PM33.8 °F32.0 °F93 %28.97 in5.6 miNNW (330°)9.2 mphRainLight Rain
5:50 PM32.0 °F32.0 °F100 %28.97 in4.3 miNNW (340°)10.4 mphRainLight Rain
6:20 PM33.8 °F32.0 °F93 %29.00 in4.3 miNNW (330°)9.2 mphRainLight Rain
6:50 PM33.8 °F30.2 °F87 %29.00 inNNW (330°)10.4 mphClear
7:20 PM33.8 °F30.2 °F87 %29.00 inNNW (330°)10.4 mphClear
7:29 PM33.8 °F30.2 °F87 %29.00 in6.2 miNNW (330°)10.4 mphScattered Clouds
8:39 PM32.0 °F28.4 °F87 %29.03 inNNW (330°)8.1 mphClear
8:50 PM32.0 °F28.4 °F87 %29.03 inNNW (330°)8.1 mphClear
9:20 PM32.0 °F28.4 °F87 %29.06 inNNW (330°)6.9 mphClear
9:50 PM32.0 °F28.4 °F87 %29.06 inNNW (340°)8.1 mphClear
10:20 PM32.0 °F28.4 °F87 %29.09 inNW (320°)9.2 mphClear
10:50 PM32.0 °F28.4 °F87 %29.09 inNNW (330°)9.2 mphClear
11:20 PM32.0 °F28.4 °F87 %29.09 inNW (320°)8.1 mphClear
11:50 PM32.0 °F28.4 °F87 %29.12 inNW (310°)9.2 mphClear
Hourly data recorded from EFMA, located miles away from Maarianhamina, Finland







STORIES FROM OUR PARTNERS